FW6490 Weather Reports


time (UTC)temp
C
wind
direction
speed
KPH
gust
KPH
rain 1hr
cm
rain 24hr
cm
rain mn
cm
humidity
%
barometer
mb
20260902114804 11 309 0.0 0.0 0.00 0.00 0.00 92 1011.9
20260902113804 11 309 0.0 0.0 0.00 0.00 0.00 92 1011.7
20260902113300 11 309 0.0 0.0 0.00 0.00 0.00 92 1011.7
20260902112756 11 309 0.0 0.0 0.00 0.00 0.00 93 1011.6
20260902112248 11 309 0.0 0.0 0.00 0.00 0.00 92 1011.6
20260902111746 11 309 0.0 0.0 0.00 0.00 0.00 92 1011.6
20260902111246 11 309 0.0 0.0 0.00 0.00 0.00 93 1011.5
20260902110745 11 309 0.0 0.0 0.00 0.00 0.00 93 1011.5
20260902110244 11 309 0.0 0.0 0.00 0.00 0.00 93 1011.5
20260902105738 11 309 0.0 0.0 0.00 0.00 0.00 92 1011.5
20260902105237 11 309 0.0 0.0 0.00 0.00 0.00 93 1011.5
20260902104733 11 309 0.0 0.0 0.00 0.00 0.00 93 1011.5
20260902104228 11 309 0.0 0.0 0.00 0.00 0.00 93 1011.4
20260902103727 11 309 0.0 0.0 0.00 0.00 0.00 93 1011.4
20260902103225 11 309 0.0 0.0 0.00 0.00 0.00 93 1011.4
20260902102728 11 309 0.0 0.0 0.00 0.00 0.00 93 1011.5
20260902102220 12 309 0.0 0.0 0.00 0.00 0.00 93 1011.5
20260902101720 12 309 0.0 0.0 0.00 0.00 0.00 93 1011.5
20260902101220 11 309 0.0 0.0 0.00 0.00 0.00 93 1011.5
20260902100718 11 309 0.0 0.0 0.00 0.00 0.00 93 1011.5
20260902100210 11 309 0.0 0.0 0.00 0.00 0.00 93 1011.5
20260902095708 11 309 0.0 0.0 0.00 0.00 0.00 93 1011.7
20260902095205 11 309 0.0 0.0 0.00 0.00 0.00 93 1011.7
20260902094708 11 309 0.0 0.0 0.00 0.00 0.00 93 1011.7
20260902094201 11 309 0.0 0.0 0.00 0.00 0.00 93 1011.8
20260902093659 11 309 0.0 0.0 0.00 0.00 0.00 93 1011.8
20260902093157 11 309 0.0 0.0 0.00 0.00 0.00 93 1011.8
20260902092656 11 309 0.0 0.0 0.00 0.00 0.00 93 1011.8
20260902091655 11 309 0.0 0.0 0.00 0.00 0.00 93 1011.8
20260902091150 11 309 0.0 0.0 0.00 0.00 0.00 92 1011.9
20260902090650 11 309 0.0 0.0 0.00 0.00 0.00 92 1011.9
20260902090152 11 309 0.0 0.0 0.00 0.00 0.00 92 1011.9
20260902085647 11 309 0.0 0.0 0.00 0.00 0.00 92 1012.0
20260902084637 11 309 0.0 0.0 0.00 0.00 0.00 92 1012.0
20260902084134 11 309 0.0 0.0 0.00 0.00 0.00 92 1012.0
20260902083629 11 309 0.0 0.0 0.00 0.00 0.00 92 1012.0
20260902083130 11 309 0.0 0.0 0.00 0.00 0.00 92 1012.0
20260902082626 12 309 0.0 0.0 0.00 0.00 0.00 92 1012.0
20260902082124 12 309 0.0 0.0 0.00 0.00 0.00 92 1012.0
20260902081621 12 309 0.0 0.0 0.00 0.00 0.00 92 1012.0
20260902081123 12 309 0.0 0.0 0.00 0.00 0.00 92 1011.6
20260902080618 12 309 0.0 0.0 0.00 0.00 0.00 92 1011.6
20260902080112 12 309 0.0 0.0 0.00 0.00 0.00 92 1011.6
20260902075112 12 309 0.0 0.0 0.00 0.00 0.00 92 1011.6
20260902074606 12 309 0.0 0.0 0.00 0.00 0.00 91 1011.6
20260902074106 12 309 0.0 0.0 0.00 0.00 0.00 91 1011.6
20260902073609 12 309 0.0 0.0 0.00 0.00 0.00 91 1011.6
20260902073104 12 309 0.0 0.0 0.00 0.00 0.00 91 1011.6
20260902072606 12 309 0.0 0.0 0.00 0.00 0.00 91 1011.6
20260902072059 12 309 0.0 0.0 0.00 0.00 0.00 91 1011.6
20260902071557 12 309 0.0 0.0 0.00 0.00 0.00 91 1011.6
20260902071056 13 309 0.0 0.0 0.00 0.00 0.00 91 1011.6
20260902070059 13 309 0.0 0.0 0.00 0.00 0.00 91 1011.6
20260902065556 13 309 0.0 0.0 0.00 0.00 0.00 90 1011.6
20260902065050 13 309 0.0 0.0 0.00 0.00 0.00 90 1011.6
20260902064544 13 309 0.0 0.0 0.00 0.00 0.00 90 1011.6
20260902063543 13 309 0.0 0.0 0.00 0.00 0.00 90 1011.6
20260902062534 13 309 0.0 1.6 0.00 0.00 0.00 90 1011.6
20260902062035 13 309 0.0 0.0 0.00 0.00 0.00 89 1011.6
20260902061029 13 309 0.0 0.0 0.00 0.00 0.00 89 1011.8
20260902060026 14 309 0.0 0.0 0.00 0.00 0.00 89 1011.8
20260902055524 14 309 0.0 0.0 0.00 0.00 0.00 89 1011.8
20260902055024 14 309 0.0 0.0 0.00 0.00 0.00 88 1011.8
20260902054521 14 309 0.0 0.0 0.00 0.00 0.00 88 1011.8
20260902054018 15 309 0.0 0.0 0.00 0.00 0.00 88 1012.1
20260902053017 15 309 0.0 0.0 0.00 0.00 0.00 88 1012.1
20260902052510 15 309 0.0 0.0 0.00 0.00 0.00 88 1012.1
20260902052004 15 309 0.0 0.0 0.00 0.00 0.00 88 1012.1
20260902051505 15 309 0.0 0.0 0.00 0.00 0.00 88 1012.1
20260902051001 15 309 0.0 0.0 0.00 0.00 0.00 88 1012.1
20260902050503 15 309 0.0 0.0 0.00 0.00 0.00 88 1012.1
20260902045956 15 309 0.0 1.6 0.00 0.00 0.00 87 1012.1
20260902044458 15 309 0.0 4.8 0.00 0.00 0.00 87 1011.9
20260902043957 15 309 1.6 4.8 0.00 0.00 0.00 87 1011.7
20260902043454 16 309 1.6 4.8 0.00 0.00 0.00 87 1011.7
20260902042448 16 309 3.2 9.7 0.00 0.00 0.00 86 1011.6
20260902041448 16 312 1.6 6.4 0.00 0.00 0.00 86 1011.6
20260902040944 16 311 1.6 6.4 0.00 0.00 0.00 86 1011.5
20260902040444 16 311 1.6 6.4 0.00 0.00 0.00 86 1011.5
20260902035941 16 311 1.6 4.8 0.00 0.00 0.00 86 1011.5
20260902035440 16 311 1.6 6.4 0.00 0.00 0.00 86 1011.1
20260902034937 16 311 1.6 6.4 0.00 0.00 0.00 85 1011.1
20260902034436 16 310 1.6 6.4 0.00 0.00 0.00 85 1011.1
20260902033937 16 310 1.6 6.4 0.00 0.00 0.00 85 1011.0
20260902033431 16 306 3.2 8.0 0.00 0.00 0.00 85 1011.0
20260902032930 16 306 3.2 8.0 0.00 0.00 0.00 85 1011.0
20260902032429 16 306 1.6 6.4 0.00 0.00 0.00 85 1010.9
20260902031929 16 306 1.6 8.0 0.00 0.00 0.00 84 1010.9
20260902031429 16 306 1.6 8.0 0.00 0.00 0.00 84 1010.9
20260902030927 16 306 1.6 6.4 0.00 0.00 0.00 84 1010.8
20260902025923 16 306 3.2 6.4 0.00 0.00 0.00 83 1010.8
20260902025423 16 306 3.2 8.0 0.00 0.00 0.00 82 1010.7
20260902024920 16 308 4.8 11.3 0.00 0.00 0.00 82 1010.7
20260902024417 16 309 3.2 11.3 0.00 0.00 0.00 82 1010.7
20260902023915 16 317 3.2 8.0 0.00 0.00 0.00 82 1010.7
20260902023411 16 317 3.2 11.3 0.00 0.00 0.00 82 1010.7
20260902022910 16 320 4.8 11.3 0.00 0.00 0.00 81 1010.7
20260902022410 17 296 4.8 11.3 0.00 0.00 0.00 80 1010.7
20260902021908 17 319 4.8 12.9 0.00 0.00 0.00 80 1010.7
20260902020909 17 274 6.4 17.7 0.00 0.00 0.00 77 1010.7
20260902020404 17 280 6.4 17.7 0.00 0.00 0.00 77 1010.7
20260902015904 17 265 6.4 17.7 0.00 0.00 0.00 75 1010.7
20260902014903 17 267 4.8 19.3 0.00 0.00 0.00 72 1010.6
20260902014359 18 305 4.8 12.9 0.00 0.00 0.00 70 1010.7
20260902013901 18 309 4.8 16.1 0.00 0.00 0.00 69 1010.7
20260902013400 18 308 4.8 16.1 0.00 0.00 0.00 69 1010.7
20260902012859 18 313 6.4 16.1 0.00 0.00 0.00 68 1010.7
20260902012359 19 313 6.4 11.3 0.00 0.00 0.00 66 1010.7
20260902011854 19 315 6.4 12.9 0.00 0.00 0.00 65 1010.7
20260902011355 20 306 6.4 12.9 0.00 0.00 0.00 64 1010.7
20260902010852 20 309 6.4 14.5 0.00 0.00 0.00 62 1010.7
20260902010349 20 306 6.4 14.5 0.00 0.00 0.00 63 1010.7
20260902005845 20 306 6.4 14.5 0.00 0.00 0.00 62 1010.7
20260902005345 20 324 6.4 17.7 0.00 0.00 0.00 61 1010.7
20260902004845 20 339 6.4 17.7 0.00 0.00 0.00 60 1010.7
20260902004344 20 321 6.4 14.5 0.00 0.00 0.00 60 1010.7
20260902003839 20 319 6.4 12.9 0.00 0.00 0.00 60 1010.7
20260902003340 21 348 6.4 20.9 0.00 0.00 0.00 60 1010.7
20260902002839 21 267 6.4 20.9 0.00 0.00 0.00 59 1010.7
20260902002338 21 325 8.0 19.3 0.00 0.00 0.00 58 1010.7
20260902001836 21 301 6.4 14.5 0.00 0.00 0.00 58 1010.7
20260902001339 21 340 6.4 16.1 0.00 0.00 0.00 57 1010.7
20260902000831 21 317 6.4 16.1 0.00 0.00 0.00 56 1010.7
20260902000329 21 315 6.4 14.5 0.00 0.00 0.00 55 1010.7
20260901235828 21 317 6.4 19.3 0.00 0.00 0.00 56 1010.7
20260901235327 21 324 8.0 19.3 0.00 0.00 0.00 57 1010.7
20260901234824 21 309 8.0 17.7 0.00 0.00 0.00 56 1010.7
20260901234323 21 315 8.0 17.7 0.00 0.00 0.00 56 1010.7
20260901233821 22 311 6.4 17.7 0.00 0.00 0.00 56 1010.7
20260901233321 22 317 6.4 17.7 0.00 0.00 0.00 56 1010.7
20260901232323 22 355 6.4 16.1 0.00 0.00 0.00 56 1010.7
20260901231818 21 331 8.0 16.1 0.00 0.00 0.00 56 1010.7
20260901231319 22 306 8.0 16.1 0.00 0.00 0.00 55 1010.7
20260901230814 22 334 6.4 16.1 0.00 0.00 0.00 54 1010.7
20260901230315 22 318 6.4 16.1 0.00 0.00 0.00 55 1010.7
20260901225815 22 322 8.0 17.7 0.00 0.00 0.00 54 1010.7
20260901225310 22 321 6.4 17.7 0.00 0.00 0.00 55 1010.7
20260901224809 22 311 6.4 16.1 0.00 0.00 0.00 54 1010.7
20260901224307 22 343 6.4 16.1 0.00 0.00 0.00 53 1010.9
20260901223259 22 323 6.4 16.1 0.00 0.00 0.00 55 1010.8
20260901222801 22 351 6.4 16.1 0.00 0.00 0.00 55 1011.0
20260901222301 22 348 6.4 14.5 0.00 0.00 0.00 56 1011.0
20260901221801 22 329 6.4 16.1 0.00 0.00 0.00 55 1011.0
20260901221259 22 295 8.0 16.1 0.00 0.00 0.00 55 1011.1
20260901220752 22 328 8.0 17.7 0.00 0.00 0.00 56 1011.1
20260901220253 22 312 8.0 17.7 0.00 0.00 0.00 55 1011.1
20260901215751 22 340 8.0 16.1 0.00 0.00 0.00 54 1011.2
20260901215250 22 312 8.0 16.1 0.00 0.00 0.00 54 1011.2
20260901214747 22 355 8.0 16.1 0.00 0.00 0.00 54 1011.2
20260901214246 22 280 8.0 16.1 0.00 0.00 0.00 54 1011.2
20260901213744 22 323 8.0 17.7 0.00 0.00 0.00 53 1011.2
20260901213247 22 315 8.0 19.3 0.00 0.00 0.00 53 1011.2
20260901212744 22 306 8.0 19.3 0.00 0.00 0.00 53 1011.2
20260901212245 22 315 8.0 17.7 0.00 0.00 0.00 54 1011.2
20260901211745 22 309 8.0 17.7 0.00 0.00 0.00 53 1011.2
20260901211242 22 340 8.0 17.7 0.00 0.00 0.00 54 1011.2
20260901210741 22 312 8.0 17.7 0.00 0.00 0.00 54 1011.2
20260901210238 22 335 8.0 17.7 0.00 0.00 0.00 54 1011.2
20260901205737 22 302 8.0 20.9 0.00 0.00 0.00 53 1011.2
20260901204734 22 312 8.0 17.7 0.00 0.00 0.00 53 1011.2
20260901203731 23 329 8.0 19.3 0.00 0.00 0.00 52 1011.4
20260901203231 23 317 6.4 16.1 0.00 0.00 0.00 53 1011.4
20260901202730 23 350 6.4 14.5 0.00 0.00 0.00 53 1011.4
20260901202228 23 306 6.4 12.9 0.00 0.00 0.00 54 1011.4
20260901201225 23 355 6.4 14.5 0.00 0.00 0.00 55 1011.4
20260901200725 23 328 6.4 12.9 0.00 0.00 0.00 54 1011.4
20260901200221 23 323 6.4 12.9 0.00 0.00 0.00 54 1011.4
20260901195219 23 282 4.8 16.1 0.00 0.00 0.00 53 1011.5
20260901194719 23 331 4.8 16.1 0.00 0.00 0.00 53 1011.5
20260901194217 23 348 4.8 16.1 0.00 0.00 0.00 54 1011.7
20260901193715 23 330 4.8 12.9 0.00 0.00 0.00 55 1011.7
20260901193211 23 322 4.8 12.9 0.00 0.00 0.00 54 1011.7
20260901192711 23 317 6.4 16.1 0.00 0.00 0.00 53 1011.8
20260901192213 23 308 6.4 16.1 0.00 0.00 0.00 53 1011.8
20260901191711 23 327 4.8 11.3 0.00 0.00 0.00 52 1011.8
20260901190708 22 344 4.8 11.3 0.00 0.00 0.00 54 1011.7
20260901190213 22 314 4.8 9.7 0.00 0.00 0.00 54 1011.7
20260901185706 22 348 4.8 14.5 0.00 0.00 0.00 53 1011.7
20260901185200 22 347 4.8 14.5 0.00 0.00 0.00 55 1011.7
20260901184659 22 321 4.8 11.3 0.00 0.00 0.00 54 1011.7
20260901184205 22 318 4.8 16.1 0.00 0.00 0.00 53 1011.7
20260901183659 22 290 4.8 16.1 0.00 0.00 0.00 55 1011.7
20260901183155 21 340 4.8 11.3 0.00 0.00 0.00 55 1011.7
20260901182654 21 306 4.8 11.3 0.00 0.00 0.00 57 1011.8
20260901182151 21 323 4.8 12.9 0.00 0.00 0.00 56 1011.8
20260901181649 21 307 6.4 12.9 0.00 0.00 0.00 57 1011.8
20260901181149 21 342 6.4 12.9 0.00 0.00 0.00 58 1011.8
20260901180648 21 315 4.8 11.3 0.00 0.00 0.00 59 1011.8
20260901180149 21 313 6.4 11.3 0.00 0.00 0.00 58 1011.8
20260901175146 21 42 6.4 17.7 0.00 0.00 0.00 61 1011.7
20260901174138 20 303 8.0 12.9 0.00 0.00 0.00 61 1011.7
20260901173638 21 311 8.0 16.1 0.00 0.00 0.00 58 1011.7
20260901173138 21 313 6.4 16.1 0.00 0.00 0.00 58 1011.7
20260901172134 22 324 3.2 11.3 0.00 0.00 0.00 57 1011.3
20260901171634 22 351 4.8 11.3 0.00 0.00 0.00 60 1011.3
20260901171135 21 19 4.8 11.3 0.00 0.00 0.00 60 1011.5
20260901170631 21 338 4.8 11.3 0.00 0.00 0.00 61 1011.5
20260901170129 21 344 3.2 11.3 0.00 0.00 0.00 62 1011.5
20260901165628 21 355 3.2 9.7 0.00 0.00 0.00 62 1011.3
20260901165127 20 335 3.2 11.3 0.00 0.00 0.00 64 1011.3
20260901164625 20 335 3.2 11.3 0.00 0.00 0.00 63 1011.3
20260901163623 20 330 1.6 8.0 0.00 0.00 0.00 65 1011.3
20260901163121 20 42 1.6 11.3 0.00 0.00 0.00 68 1011.3
20260901162619 19 42 1.6 11.3 0.00 0.00 0.00 68 1011.3
20260901161618 18 92 1.6 9.7 0.00 0.00 0.00 72 1011.3
20260901161114 18 92 1.6 9.7 0.00 0.00 0.00 71 1011.3
20260901155108 18 246 1.6 3.2 0.00 0.00 0.00 74 1011.2
20260901154107 18 270 0.0 0.0 0.00 0.00 0.00 75 1011.2
20260901153602 17 270 0.0 0.0 0.00 0.00 0.00 75 1011.2
20260901153059 17 270 0.0 0.0 0.00 0.00 0.00 78 1011.2
20260901152557 17 270 0.0 0.0 0.00 0.00 0.00 77 1011.1
20260901151556 16 270 0.0 0.0 0.00 0.00 0.00 81 1011.1
20260901150048 16 270 0.0 0.0 0.00 0.00 0.00 85 1011.1
20260901145045 15 270 0.0 0.0 0.00 0.00 0.00 89 1011.0
20260901144542 14 270 0.0 0.0 0.00 0.00 0.00 89 1011.0
20260901143533 13 270 0.0 0.0 0.00 0.00 0.00 91 1010.8
20260901143029 13 270 0.0 0.0 0.00 0.00 0.00 92 1010.7
20260901142524 12 270 0.0 0.0 0.00 0.00 0.00 91 1010.6
20260901142021 12 270 0.0 0.0 0.00 0.00 0.00 91 1010.6
20260901141518 12 270 0.0 0.0 0.00 0.00 0.00 91 1010.6
20260901141011 12 270 0.0 0.0 0.00 0.00 0.00 91 1010.6
20260901140507 12 270 0.0 0.0 0.00 0.00 0.00 91 1010.6
20260901140006 12 270 0.0 0.0 0.00 0.00 0.00 90 1010.6
20260901135001 12 270 0.0 0.0 0.00 0.00 0.00 90 1010.5
20260901134501 12 270 0.0 0.0 0.00 0.00 0.00 90 1010.5
20260901133959 12 270 0.0 0.0 0.00 0.00 0.00 90 1010.5
20260901133000 12 270 0.0 0.0 0.00 0.00 0.00 90 1010.5
20260901131950 12 270 0.0 0.0 0.00 0.00 0.00 90 1010.5
20260901131447 12 270 0.0 0.0 0.00 0.00 0.00 90 1010.5
20260901130939 12 270 0.0 0.0 0.00 0.00 0.00 90 1010.5
20260901125936 12 270 0.0 0.0 0.00 0.00 0.00 90 1010.5
20260901125435 12 270 0.0 0.0 0.00 0.00 0.00 90 1010.5
20260901124931 12 270 0.0 0.0 0.00 0.00 0.00 90 1010.5
20260901123426 13 270 0.0 0.0 0.00 0.00 0.00 90 1010.4
20260901122920 13 270 0.0 0.0 0.00 0.00 0.00 90 1010.4
20260901122419 13 270 0.0 0.0 0.00 0.00 0.00 90 1010.2
20260901121915 13 270 0.0 0.0 0.00 0.00 0.00 90 1010.2
20260901121415 13 270 0.0 0.0 0.00 0.00 0.00 90 1010.2
20260901120407 13 270 0.0 0.0 0.00 0.00 0.00 89 1010.0
20260901115906 13 270 0.0 4.8 0.00 0.00 0.00 89 1010.0